[[{"header":{"parameterUnit":"m.s-1","parameterCategory":1,"la1":30.2991,"la2":30.254,"lo1":-89.0895,"lo2":-89.0444,"dy":0.0017,"dx":0.0017,"nx":28,"ny":28,"refTime":"2025-09-03T03:00:00:Z","depth":0,"parameterNumber":2,"parameterNumberName":"U-component_of_WINDS"},"data":[0,0,0,0,0,0,0,0,0,0,0,0,0,0,0,0,0,0,0,0,0,0,0,0,0,0,0,0,0,0,0,0,0,0,0,0,0,0,0,0,0,0,0,0,0,0,0,0,0,0,0,0,0,0,0,0,0,0,-1.1819,-1.1819,0,-1.1803,-1.1802,-1.1802,-1.1762,-1.1762,-1.1761,-1.176,-1.1744,-1.1744,-1.1744,0,0,0,0,0,0,0,0,0,0,0,0,0,-1.1819,-1.1819,-1.1819,-1.1819,-1.1819,-1.1803,-1.1802,-1.1802,-1.1763,-1.1762,-1.1761,-1.176,-1.1744,-1.1744,-1.1744,0,0,0,0,0,0,0,0,0,0,0,0,0,-1.1812,-1.1819,-1.182,-1.1797,-1.1795,-1.1803,-1.1802,-1.1802,-1.1763,-1.1762,-1.176,-1.1759,-1.1743,-1.1744,-1.1744,-1.1772,0,0,-1.1746,-1.1746,0,0,0,0,0,0,0,0,-1.1813,-1.1812,-1.1801,-1.1799,-1.1796,-1.1783,-1.1796,-1.1792,-1.1763,-1.1775,-1.176,-1.1759,-1.1758,-1.1757,-1.1757,-1.1772,-1.1771,-1.1746,-1.1746,-1.1746,-1.1747,0,0,0,0,0,0,0,-1.1813,-1.1813,-1.1813,-1.1801,-1.1798,-1.1789,-1.1786,-1.1795,-1.1774,-1.1774,-1.1771,-1.177,-1.1756,-1.1756,-1.1756,-1.1771,-1.1746,-1.1746,-1.1747,-1.1747,-1.1809,-1.181,0,0,0,0,0,0,-1.1817,-1.1814,-1.1813,-1.1812,-1.1802,-1.179,-1.1787,-1.1789,-1.1774,-1.177,-1.1771,-1.1768,-1.1756,-1.1756,-1.1755,-1.1788,-1.1746,-1.1747,-1.1747,-1.1807,-1.1809,-1.1811,0,0,0,0,0,0,-1.1817,-1.1817,-1.1814,-1.1812,-1.1811,-1.1791,-1.1793,-1.1789,-1.1789,-1.1771,-1.1767,-1.1774,-1.1755,-1.1755,-1.1769,-1.1787,-1.1747,-1.1748,-1.1806,-1.1808,-1.181,-1.1852,0,0,0,0,0,0,-1.1817,-1.1817,-1.1827,-1.1813,-1.1811,-1.1827,-1.1794,-1.179,-1.179,-1.1786,-1.1773,-1.177,-1.1754,-1.1768,-1.1769,-1.1787,-1.1748,-1.1804,-1.1807,-1.1809,-1.1849,-1.1856,-1.1861,0,0,0,0,0,-1.1817,-1.184,-1.1828,-1.1828,-1.1823,-1.1828,-1.1828,-1.1808,-1.1791,-1.1802,-1.179,-1.1771,-1.1785,-1.177,-1.1771,-1.1789,-1.1803,-1.1806,-1.1809,-1.1847,-1.1854,-1.1861,0,0,0,0,0,0,-1.1858,-1.1838,-1.1824,-1.1843,-1.1838,-1.1822,-1.1834,-1.1817,-1.1817,-1.1813,-1.1789,-1.1787,-1.1804,-1.1798,-1.1782,-1.1815,-1.1791,-1.1794,-1.1819,-1.1826,-1.1832,-1.1833,-1.1748,0,0,0,0,0,-1.1869,-1.1874,-1.1856,-1.1875,-1.1873,-1.1854,-1.1855,-1.1841,-1.1835,-1.1832,-1.1822,-1.1817,-1.182,-1.1823,-1.1825,-1.1848,-1.1845,-1.1861,-1.1867,-1.1872,-1.1875,-1.1888,-1.1895,-1.182,-1.182,-1.182,0,0,-1.1892,-1.1881,-1.1886,-1.1883,-1.1877,-1.1884,-1.1852,-1.186,-1.1865,-1.1834,-1.1846,-1.1839,-1.1832,-1.1851,-1.1859,-1.1846,-1.1895,-1.1876,-1.188,-1.188,-1.1892,-1.1899,-1.1905,-1.1823,-1.1822,-1.1822,0,0,-1.1937,-1.1929,-1.1944,-1.1939,-1.1931,-1.1918,-1.1922,-1.1909,-1.1902,-1.1915,-1.1891,-1.1897,-1.1903,-1.1899,-1.1898,-1.1943,-1.1925,-1.1944,-1.1975,-1.1988,-1.1994,-1.1999,-1.2015,-1.2021,-1.1947,-1.1948,-1.1948,0,-1.1967,-1.1975,-1.1954,-1.1964,-1.1963,-1.1935,-1.195,-1.1946,-1.1939,-1.194,-1.1926,-1.1933,-1.1926,-1.1944,-1.1956,-1.1955,-1.1959,-1.1945,-1.1994,-1.1999,-1.2004,-1.2019,-1.2026,-1.195,-1.195,-1.1949,-1.1949,0,-1.2012,-1.2019,-1.2032,-1.2026,-1.2027,-1.2039,-1.2021,-1.2024,-1.201,-1.1999,-1.2013,-1.2004,-1.2004,-1.2007,-1.1993,-1.2024,-1.2016,-1.1998,-1.1973,-1.2014,-1.2028,-1.2034,-1.1953,-1.1953,-1.1952,-1.1951,0,0,-1.2082,-1.2065,-1.207,-1.2067,-1.2056,-1.2061,-1.2073,-1.2073,-1.2076,-1.2073,-1.2082,-1.2089,-1.2072,-1.2071,-1.2057,-1.2068,-1.2105,-1.2049,-1.2049,-1.206,-1.2139,-1.2153,-1.216,-1.2093,-1.2094,-1.2095,-1.214,0,-1.2125,-1.2144,-1.2125,-1.2148,-1.2154,-1.2128,-1.2138,-1.2133,-1.2123,-1.2127,-1.2117,-1.2122,-1.21,-1.2099,-1.2109,-1.2099,-1.2121,-1.2095,-1.2103,-1.2103,-1.2105,-1.2167,-1.2181,-1.2224,-1.2145,-1.2146,-1.2147,0,-1.2178,-1.2176,-1.2199,-1.2188,-1.219,-1.2199,-1.2198,-1.2202,-1.2196,-1.2188,-1.2188,-1.217,-1.2182,-1.2157,-1.2173,-1.2156,-1.2158,-1.2153,-1.2155,-1.2155,-1.2128,-1.2169,-1.2237,-1.2243,-1.2155,-1.2155,-1.2154,0,-1.2227,-1.2231,-1.2246,-1.2244,-1.223,-1.2238,-1.2233,-1.2225,-1.2227,-1.2226,-1.2227,-1.2228,-1.2228,-1.2229,-1.2213,-1.2197,-1.2231,-1.2205,-1.2226,-1.2226,-1.2234,-1.2234,-1.2303,-1.2235,-1.2235,-1.2235,-1.2235,0,-1.2277,-1.2292,-1.2268,-1.2277,-1.2293,-1.2272,-1.229,-1.2282,-1.2276,-1.2283,-1.226,-1.2268,-1.2246,-1.2252,-1.2239,-1.2254,-1.2255,-1.2249,-1.2246,-1.2252,-1.2252,-1.2253,-1.2249,-1.2237,-1.2236,-1.2236,-1.2236,0,-1.2335,-1.2319,-1.2333,-1.2319,-1.2316,-1.2329,-1.2318,-1.2326,-1.2315,-1.2325,-1.2326,-1.2309,-1.2315,-1.2299,-1.2302,-1.2293,-1.2316,-1.2307,-1.2318,-1.2315,-1.2337,-1.2336,-1.2409,-1.2418,-1.2344,-1.2345,-1.2346,0,-1.2368,-1.2379,-1.2367,-1.237,-1.2366,-1.2372,-1.2373,-1.2353,-1.2356,-1.235,-1.2359,-1.2363,-1.2364,-1.2374,-1.2363,-1.2365,-1.2357,-1.2383,-1.2357,-1.2363,-1.2358,-1.2358,-1.2359,-1.2388,-1.2389,-1.239,-1.239,0,-1.2429,-1.2421,-1.2423,-1.2424,-1.2426,-1.2425,-1.2423,-1.2427,-1.2406,-1.241,-1.2415,-1.2416,-1.2419,-1.2423,-1.2423,-1.2419,-1.2402,-1.2399,-1.2404,-1.241,-1.2415,-1.2413,-1.2333,-1.2397,-1.2396,-1.2396,-1.2395,-1.2395,-1.2476,-1.2485,-1.2478,-1.2482,-1.2478,-1.2476,-1.2484,-1.2474,-1.2477,-1.2478,-1.2467,-1.2474,-1.2469,-1.2467,-1.2464,-1.247,-1.2459,-1.2466,-1.2468,-1.247,-1.2474,-1.2414,-1.247,-1.247,-1.247,-1.247,-1.247,0,-1.2536,-1.253,-1.2534,-1.2532,-1.2535,-1.2518,-1.2515,-1.2519,-1.2526,-1.2522,-1.2524,-1.2531,-1.2535,-1.2524,-1.2526,-1.2534,-1.2526,-1.2535,-1.2535,-1.2534,-1.2484,-1.2479,-1.2541,-1.2541,-1.2541,-1.2541,-1.2541,-1.2541,-1.2568,-1.2583,-1.2574,-1.2586,-1.258,-1.2587,-1.2587,-1.2586,-1.2583,-1.2591,-1.2594,-1.2587,-1.258,-1.2582,-1.2586,-1.2582,-1.2584,-1.2597,-1.2591,-1.2544,-1.2537,-1.2531,-1.2526,-1.2597,-1.2597,-1.264,-1.2641,-1.2641]},{"header":{"parameterUnit":"m.s-1","parameterCategory":1,"la1":30.2991,"la2":30.254,"lo1":-89.0895,"lo2":-89.0444,"dy":0.0017,"dx":0.0017,"nx":28,"ny":28,"refTime":"2025-09-03T03:00:00:Z","depth":0,"parameterNumber":3,"parameterNumberName":"V-component_of_WINDS"},"data":[0,0,0,0,0,0,0,0,0,0,0,0,0,0,0,0,0,0,0,0,0,0,0,0,0,0,0,0,0,0,0,0,0,0,0,0,0,0,0,0,0,0,0,0,0,0,0,0,0,0,0,0,0,0,0,0,0,0,2.964,2.964,0,2.9601,2.96,2.96,2.9589,2.959,2.959,2.959,2.9545,2.9543,2.9542,0,0,0,0,0,0,0,0,0,0,0,0,0,2.9702,2.9701,2.964,2.964,2.9639,2.9601,2.96,2.96,2.9589,2.959,2.959,2.959,2.9545,2.9543,2.9542,0,0,0,0,0,0,0,0,0,0,0,0,0,2.967,2.9701,2.9641,2.963,2.9628,2.9601,2.96,2.96,2.9589,2.959,2.959,2.959,2.9546,2.9543,2.9541,2.952,0,0,2.9535,2.9534,0,0,0,0,0,0,0,0,2.9672,2.9668,2.9632,2.963,2.9629,2.9601,2.9605,2.9573,2.9589,2.9604,2.959,2.9591,2.9562,2.9559,2.9551,2.9518,2.9516,2.9534,2.9533,2.9532,2.9532,0,0,0,0,0,0,0,2.9674,2.9669,2.9625,2.9631,2.9629,2.9625,2.9621,2.9599,2.9581,2.9603,2.9602,2.9598,2.9562,2.9553,2.9549,2.9516,2.9535,2.9533,2.9531,2.953,2.9464,2.9463,0,0,0,0,0,0,2.9679,2.9671,2.9626,2.9623,2.9652,2.9624,2.9619,2.9609,2.9582,2.9578,2.9597,2.9597,2.9556,2.9552,2.9548,2.9521,2.9532,2.953,2.9529,2.9464,2.9463,2.9463,0,0,0,0,0,0,2.968,2.9675,2.9627,2.9647,2.9641,2.9622,2.9611,2.9608,2.9599,2.9578,2.9574,2.9592,2.9556,2.9551,2.9528,2.9519,2.9529,2.9527,2.9465,2.9464,2.9463,2.9468,0,0,0,0,0,0,2.9682,2.9676,2.9669,2.9647,2.964,2.9609,2.9611,2.9607,2.9596,2.9596,2.9571,2.9568,2.9556,2.9531,2.9525,2.9517,2.9526,2.9465,2.9464,2.9463,2.9468,2.9467,2.9467,0,0,0,0,0,2.9684,2.967,2.9668,2.9663,2.9631,2.9609,2.9605,2.9593,2.9596,2.9587,2.9574,2.9568,2.9521,2.9529,2.9522,2.9513,2.9466,2.9465,2.9464,2.9469,2.9468,2.9467,0,0,0,0,0,0,2.9689,2.9667,2.9665,2.9644,2.9629,2.9607,2.9597,2.9592,2.9575,2.9575,2.956,2.9554,2.9532,2.952,2.9528,2.9491,2.9493,2.9491,2.9499,2.9498,2.9497,2.95,2.9524,0,0,0,0,0,2.9688,2.9674,2.9655,2.9638,2.9631,2.9615,2.9605,2.9598,2.9581,2.9574,2.9558,2.954,2.9521,2.9509,2.9491,2.9467,2.9461,2.9457,2.9456,2.9456,2.9453,2.9439,2.9437,2.9459,2.9459,2.9459,0,0,2.9685,2.9672,2.9663,2.9639,2.9626,2.961,2.961,2.9593,2.958,2.957,2.9548,2.9536,2.9515,2.9491,2.948,2.948,2.9446,2.9454,2.9454,2.9452,2.9438,2.9436,2.9434,2.9459,2.9459,2.9459,0,0,2.9672,2.966,2.9645,2.9633,2.9614,2.9604,2.9601,2.958,2.9572,2.955,2.9542,2.9526,2.9494,2.948,2.9468,2.9449,2.9443,2.9444,2.9439,2.9425,2.9423,2.9421,2.9414,2.9411,2.9442,2.9442,2.9442,0,2.967,2.9647,2.9637,2.9621,2.961,2.9603,2.9586,2.9574,2.955,2.9541,2.9543,2.9503,2.9488,2.9461,2.9456,2.9448,2.9442,2.9446,2.9424,2.9423,2.9421,2.9413,2.9411,2.9442,2.9442,2.9442,2.9442,0,2.9645,2.9629,2.9619,2.9597,2.9585,2.9569,2.9555,2.9544,2.9538,2.9527,2.9504,2.9486,2.9464,2.9457,2.945,2.9428,2.9429,2.9428,2.943,2.9419,2.9412,2.9409,2.9442,2.9442,2.9442,2.9442,0,0,2.9632,2.9607,2.9603,2.9593,2.9572,2.9559,2.9542,2.9522,2.9512,2.9495,2.9479,2.9453,2.9452,2.9439,2.943,2.9418,2.9404,2.9418,2.9417,2.9415,2.9377,2.9377,2.9374,2.94,2.94,2.9399,2.9378,0,2.9615,2.9586,2.9577,2.9552,2.9536,2.9529,2.9514,2.9499,2.9489,2.9473,2.946,2.9442,2.9442,2.9434,2.9422,2.9408,2.9395,2.9409,2.9383,2.9383,2.9388,2.9371,2.9371,2.9352,2.9376,2.9375,2.9375,0,2.9591,2.9576,2.955,2.9531,2.9525,2.9511,2.9492,2.9478,2.946,2.9453,2.9439,2.9431,2.9411,2.9416,2.9387,2.9397,2.9386,2.9377,2.9376,2.9372,2.9377,2.9365,2.9346,2.9343,2.937,2.9371,2.9371,0,2.9584,2.9557,2.9537,2.9529,2.9507,2.9498,2.9488,2.9471,2.9459,2.9442,2.9434,2.9414,2.9403,2.9387,2.9374,2.9378,2.9346,2.9349,2.9338,2.9339,2.9331,2.9331,2.9309,2.9326,2.9326,2.9326,2.9326,0,2.9565,2.9549,2.9534,2.9522,2.9503,2.9493,2.9474,2.9463,2.9448,2.9433,2.9425,2.9411,2.9395,2.9378,2.9367,2.9345,2.934,2.9332,2.933,2.9332,2.9333,2.9324,2.9324,2.9325,2.9325,2.9325,2.9325,0,2.9553,2.9542,2.9521,2.9502,2.9497,2.9484,2.9467,2.9455,2.9444,2.9425,2.942,2.9403,2.9382,2.9368,2.9341,2.9334,2.931,2.9307,2.9316,2.9314,2.9304,2.9305,2.9273,2.9268,2.929,2.929,2.929,0,2.9541,2.9529,2.9509,2.95,2.949,2.9474,2.9463,2.9452,2.944,2.9419,2.9408,2.9388,2.9371,2.9338,2.9322,2.9301,2.9298,2.9288,2.9294,2.9298,2.9296,2.9297,2.9295,2.9287,2.9287,2.9287,2.9286,0,2.9521,2.9517,2.9502,2.9485,2.9472,2.9457,2.9442,2.9434,2.942,2.9407,2.9387,2.9374,2.9348,2.9327,2.9305,2.9292,2.9286,2.9285,2.9281,2.9283,2.9288,2.9284,2.9312,2.9285,2.9285,2.9286,2.9286,2.9286,2.9508,2.9497,2.9481,2.9464,2.9453,2.9439,2.9427,2.9415,2.9399,2.9378,2.9372,2.9351,2.9332,2.9302,2.929,2.9272,2.9273,2.9267,2.9266,2.9264,2.9264,2.9293,2.9268,2.9268,2.9268,2.9268,2.9268,0,2.9487,2.9477,2.9462,2.9442,2.9429,2.9427,2.941,2.9399,2.9381,2.9365,2.9349,2.9325,2.9305,2.9288,2.9267,2.9256,2.9253,2.925,2.925,2.9248,2.9265,2.927,2.9254,2.9254,2.9254,2.9254,2.9254,2.9254,2.9474,2.9454,2.9448,2.9422,2.9412,2.9393,2.9383,2.937,2.9358,2.9333,2.9317,2.9307,2.929,2.9268,2.9248,2.9244,2.9236,2.9234,2.9229,2.9245,2.9246,2.9248,2.9253,2.9233,2.9233,2.9212,2.9212,2.9212]}]]